Regional Weather Roundup
Issued by NWS

Home | Current Version | Previous Version | Graphics & Text | Print | Product List | Glossary On
Versions: 1 2 3 4 5 6 7 8 9 10 11 12 13 14 15 16 17 18 19 20 21 22 23 24 25 26 27 28 29 30 31 32 33 34 35 36 37 38 39 40 41 42 43 44 45 46 47 48 49 50
000
ASUS45 KBOU 041510
RWRCO

WEATHER ROUNDUP FOR COLORADO
NATIONAL WEATHER SERVICE DENVER/BOULDER CO
900 AM MDT SAT JUL 04 2015

NOTE: "FAIR" INDICATES FEW OR NO CLOUDS BELOW 12000 FEET WITH NO
SIGNIFICANT WEATHER AND/OR OBSTRUCTIONS TO VISIBILITY.

COZ001>005-013-030-031-041600-
...NORTHWEST COLORADO...

CITY           SKY/WX    TMP DP  RH WIND       PRES   REMARKS
CRAIG          PTSUNNY   74  49  41 NE5       30.16S
HAYDEN         PTSUNNY   70  43  37 SE6       30.19R
MEEKER         CLOUDY    67  48  50 NE3       30.19S
MOUNT WERNER   NOT AVBL
STEAMBOAT SPGS PTSUNNY   63  46  53 CALM      30.21S
WALDEN         SUNNY     70  45  40 SE7       30.27S
$$

COZ006>008-011-041600-
...WEST CENTRAL VALLEYS...

CITY           SKY/WX    TMP DP  RH WIND       PRES   REMARKS
GRAND JUNCTION MOSUNNY   79  50  36 S18       30.09S
MONTROSE       CLOUDY    72  53  51 S13       30.20S
EAGLE          MOSUNNY   68  46  45 CALM      30.24S
RIFLE          MOSUNNY   71  52  50 CALM      30.16S
DELTA          CLOUDY    79  51  37 CALM      30.16S
NUCLA          CLOUDY    68  52  56 CALM      30.22S
$$

COZ017>023-064>068-041600-
...SOUTHWEST COLORADO...

CITY           SKY/WX    TMP DP  RH WIND       PRES   REMARKS
DURANGO        MOSUNNY   66  46  48 CALM      30.26R
CORTEZ         SUNNY     73  50  44 VRB3      30.18F
PAGOSA SPRINGS MOSUNNY   64  47  55 CALM      30.33S
TELLURIDE      CLOUDY    60  48  65 CALM      30.44S
WOLF CREEK PAS NOT AVBL
$$

COZ009-010-012-014-032>034-037-058>063-041600-
...CENTRAL COLORADO...

CITY           SKY/WX    TMP DP  RH WIND       PRES   REMARKS
ASPEN          SUNNY     65  45  48 NW5       30.30R
BUENA VISTA    SUNNY     65  47  53 CALM      30.30S
COPPER MTN     SUNNY     59  41  51 W15       30.61R
BERTHOUD PASS  FAIR      48  37  66 NW20G33   30.62S
COTTONWOOD PAS NOT AVBL
GUNNISON       MOSUNNY   61  46  59 CALM      30.37F
KREMMLING      SUNNY     63  41  45 CALM      30.27F
LEADVILLE      SUNNY     59  43  55 NE3       30.43F
MONARCH PASS   SUNNY     46  39  76 W26G36    30.69S
SALIDA         SUNNY     70  49  47 N8        30.33F
SUNLIGHT       MOSUNNY   59  46  63 CALM      30.55R
WILKERSON PASS SUNNY     55  37  50 NW12G20   30.55R
$$

COZ069>075-041600-
...SAN LUIS VALLEY/SANGRE DE CRISTO MOUNTAINS...

CITY           SKY/WX    TMP DP  RH WIND       PRES   REMARKS
ALAMOSA        MOSUNNY   62  50  64 CALM      30.32R
LA VETA PASS   SUNNY     54  48  82 MISG      30.45R
SAGUACHE       MOSUNNY   63  50  63 S6        30.35R
$$

COZ035-036-038>040-041600-
...NORTHERN COLORADO FRONT RANGE...

CITY           SKY/WX    TMP DP  RH WIND       PRES   REMARKS
DENVER INTL AP MOSUNNY   73  56  54 W5        30.03S
DMNS CITY PARK   N/A     74  55  50 SW5G12    30.03S
AURORA         MOSUNNY   74  55  51 SW10      30.05F
FRONT RANGE AP MOSUNNY   75  55  50 SW6       30.04F
ERIE MUNI ARPT SUNNY     72  59  62 CALM      30.01F
BOULDER MUN AP SUNNY     72  57  60 CALM      30.02R
CENTENNIAL     MOSUNNY   75  53  46 SW8       30.07S
BROOMFIELD     MOSUNNY   73  59  60 VRB6      30.05S
FORT COLLINS   SUNNY     72  59  64 N5        30.02S
LONGMONT       SUNNY     78  58  50 CALM      30.02F
$$

COZ041-046-047-076>085-087-088-041600-
...PIKES PEAK/PALMER DIVIDE AND SOUTHERN FOOTHILLS...

CITY           SKY/WX    TMP DP  RH WIND       PRES   REMARKS
COLO. SPRINGS  PTSUNNY   72  55  55 E3        30.12R
A. F. ACADEMY  SUNNY     71  51  50 N2        30.12S
ELLICOTT       SUNNY    N/A N/A N/A CALM      30.10R
FALCON         SUNNY     73  49  41 CALM      30.17R
FORT CARSON    SUNNY     67  56  66 N6        30.08S
LIMON          SUNNY     70  59  68 S8        30.06S
MONUMENT HILL  NOT AVBL
TRINIDAD       LGT RAIN  75  56  51 SW14      30.10S
$$

COZ042>045-048>051-090-091-041600-
...NORTHEAST COLORADO...

CITY           SKY/WX    TMP DP  RH WIND       PRES   REMARKS
GREELEY ARPT   SUNNY     70  61  73 W3        30.00S
AKRON          SUNNY     75  60  59 S12       29.99S
BURLINGTON     MOSUNNY   70  61  73 S16       30.02S
WRAY           PTSUNNY   76  61  59 SE8       29.98S
STERLING       SUNNY     73  61  64 S5          N/A
HOLYOKE        PTSUNNY   75  63  64 S10G16    29.97S
FORT MORGAN    SUNNY     74  55  52 S5        29.98S
$$

COZ086-089-092>099-041600-
...SOUTHEAST COLORADO...

CITY           SKY/WX    TMP DP  RH WIND       PRES   REMARKS
PUEBLO         MOSUNNY   73  59  61 S5        30.02F
LA JUNTA       SUNNY     79  56  45 S8        30.00F
LAMAR          SUNNY     76  58  53 S5        29.98S
SPRINGFIELD      N/A     79  60  52 VRB6      30.03S
$$


USA.gov is the U.S. government's official web portal to all federal, state and local government web resources and services.